Retour au catalogue

OPS 4682 DEB

ActifPO
NORAD 38418·DEBRIS·🇺🇸 United States

Lancé Apr 3, 1965 depuis Vandenberg Space Force Base

Loading…

Prochains Passages (prochaines 24 heures)

TLE

FraisSource: Space-Track

Époque: Sep 12, 2026, 13:32 UTC

1 38418U 65027DX  26255.56430628  .00000034  00000-0  86573-4 0  9998
2 38418  90.2479  10.7065 0027192 347.5227  12.5220 13.01032149562916

Suivez OPS 4682 DEB en temps réel avec AllMySat

Download on the App Store